Regional Weather Roundup
Issued by NWS

Home | Current Version | Previous Version | Text Only | Print | Product List | Glossary On
Versions: 1 2 3 4 5 6 7 8 9 10 11 12 13 14 15 16 17 18 19 20 21 22 23 24 25 26 27 28 29 30 31 32 33 34 35 36 37 38 39 40 41 42 43 44 45 46 47 48 49 50
000
ASUS43 KDMX 010808
RWRIA

WEATHER ROUNDUP FOR IOWA
NATIONAL WEATHER SERVICE DES MOINES IA
300 AM CDT WED JUN 01 2016

NOTE: "FAIR" INDICATES FEW OR NO CLOUDS BELOW 12,000 FEET WITH NO
SIGNIFICANT WEATHER AND/OR OBSTRUCTIONS TO VISIBILITY.

* - THESE STATIONS ARE NOT NWS STATIONS...THUS NOT UNDER NWS
QUALITY CONTROL.  THEY ALSO DO NOT REPORT WEATHER SUCH
AS PRECIPITATION OR FOG.

IAZ001>003-012>014-020>022-031>034-043>046-010900-
   NORTHWEST IOWA

CITY           SKY/WX    TMP DP  RH WIND       PRES   REMARKS
CARROLL *      CLEAR     61  50  67 W12       29.94R
CHEROKEE *     PTCLDY    57  52  82 W5        29.95F
DENISON *      CLEAR     59  50  72 CALM      29.94F
LE MARS *      CLEAR     57  50  77 W7        29.97F
ORANGE CITY *  CLEAR     57  52  82 W10       29.95F
SHELDON *      CLEAR     57  50  77 W12       29.93S
SIOUX CITY     PTCLDY    58  49  72 W8        29.97F
SPENCER        CLEAR     57  49  74 W14       29.93S
STORM LAKE *   CLEAR     57  50  77 NW16G22   29.95F
$$

IAZ055>058-069>071-079>083-090>094-010900-
   SOUTHWEST IOWA

CITY           SKY/WX    TMP DP  RH WIND       PRES   REMARKS
ATLANTIC *     CLEAR     59  55  88 S5        29.95S
AUDUBON *      CLEAR     57  54  88 W7        29.95S
CLARINDA *       N/A     57  57 100 MISG      29.96F
COUNCIL BLFS * CLEAR     61  52  72 NW8G14    29.97R
CRESTON *      FOG       57  57 100 SW6       29.96F VSB 0
HARLAN  *      CLEAR     61  52  72 W10       29.99R
LAMONI         FOG       60  60 100 SW5       29.95S VSB 3/4
RED OAK *      PTCLDY    57  57 100 CALM      29.95S
SHENANDOAH *   CLEAR     59  59 100 CALM      29.96S
$$

IAZ047>049-059>061-072>074-084-010900-
   CENTRAL IOWA

CITY           SKY/WX    TMP DP  RH WIND       PRES   REMARKS
AMES           FOG       58  58 100 CALM      29.92S VSB 3/4
ANKENY *       FOG       59  59 100 CALM      29.93R VSB 1/4
BOONE *          N/A     59  55  88 W6        29.92S
CHARITON *     FOG       59  59 100 CALM      29.94S VSB 1/4
DES MOINES     CLOUDY    62  60  93 S3        29.93R FOG
GRINNELL*      FOG       59  59 100 CALM      29.93F VSB 1/4
KNOXVILLE *    FOG       61  59  94 SW3       29.92F VSB 1/2
MARSHALLTOWN   FOG       57  57 100 S3        29.91F VSB 1/4
NEWTON *       FOG       59  59 100 CALM      29.93S VSB<1/4
PELLA *        FOG       61  61 100 CALM      29.94S VSB 1/4
PERRY *          N/A     59  55  88 SW8       29.92F
$$

IAZ004>006-015-016-023>025-035-036-010900-
   NORTH CENTRAL IOWA

CITY           SKY/WX    TMP DP  RH WIND       PRES   REMARKS
ALGONA *       CLEAR     59  52  77 W12       29.92S
CLARION *      CLEAR     57  57 100 S6        29.91F
ESTHERVILLE    CLEAR     58  50  75 W17       29.90F
FORT DODGE *   CLEAR     55  48  76 W5        29.93R
MASON CITY     CLEAR     60  55  83 SW9       29.91F
FOREST CITY *  CLEAR     52  52 100 SE3       29.90S
WEBSTER CITY * CLEAR     57  55  94 SW7       29.90S
IOWA FALLS *   FOG       59  59 100 SW3       29.93S VSB<1/4
$$

IAZ007>011-017>019-026>030-037>042-050>054-066-010900-
   NORTHEAST IOWA

CITY           SKY/WX    TMP DP  RH WIND       PRES   REMARKS
CEDAR RAPIDS   CLOUDY    63  63 100 NW3       29.91S
CHARLES CITY * FOG       61  61 100 SW6       29.92S VSB 1/4
CLINTON *      CLOUDY    63  62  97 SE6       29.94R
DECORAH *      CLOUDY    63  63 100 VRB3      29.90F FOG
DUBUQUE        CLOUDY    62  61  96 S5        29.93R
MONTICELLO *   MOCLDY    63  63 100 CALM      29.92R
OELWEIN *      FOG       63 N/A N/A SW3       29.92S VSB 0
WATERLOO       FOG       60  59  96 CALM      29.90F VSB 1/4
$$

IAZ064-065-067-068-078-010900-
   EAST CENTRAL IOWA

CITY           SKY/WX    TMP DP  RH WIND       PRES   REMARKS
DAVENPORT      CLOUDY    64  62  93 S6        29.93S
IOWA CITY      PTCLDY    63  62  97 SE6       29.93R FOG
MT. PLEASANT * MOCLDY    66  66 100 CALM      29.93S
MUSCATINE *    PTCLDY    63  63 100 CALM      29.92F
QUAD CITIES    CLOUDY    66  61  84 S6        29.91F
$$

IAZ062-063-075>077-085>089-095>099-010900-
   SOUTHEAST IOWA

CITY           SKY/WX    TMP DP  RH WIND       PRES   REMARKS
BURLINGTON     CLOUDY    66  66 100 CALM      29.91F
FAIRFIELD *      N/A    N/A N/A N/A MISG        N/A
FORT MADISON * CLOUDY    66  64  94 N5        29.93R
KEOKUK *       LGT RAIN  66  64  94 CALM      29.91S
OSKALOOSA *      N/A     63  61  94 W3        29.93S
OTTUMWA        FOG       59  59 100 CALM      29.93R VSB 1/4
WASHINGTON *   FOG       63 N/A N/A S5        29.93S VSB 1/4
$$

ABBREVIATIONS USED IN REMARKS
   TC - TEMPERATURES IN CELSIUS
  WCI - WIND CHILL INDEX
   HX - HEAT INDEX
  VSB - VISIBILITY
$$




USA.gov is the U.S. government's official web portal to all federal, state and local government web resources and services.